Hourly Data Report for October 02, 2017

All times are specified in Local Standard Time (LST). Add 1 hour to adjust for Daylight Saving Time where and when it is observed.

PARRY SOUND CCG
ONTARIO

45°20'39.000" N
80°02'39.000" W
176.30 m
6116257
71172
XPC

Download Data

Hourly Data (October 2017)
Hourly Data Report for October 2, 2017
Temp Definition
°C
Dew Point Temp Definition
°C
Rel Hum Definition
%
Wind Dir Definition
10's deg

Wind Spd Definition
km/h
Visibility Definition
km
Stn Press Definition
kPa
Hmdx Definition


Wind Chill Definition


Weather Definition


TIME
00:00 6.3 5.3 94 LegendMM LegendMM   100.48     LegendNANA
01:00 6.3 5.1 92 LegendMM LegendMM   100.50     LegendNANA
02:00 6.5 5.3 92 LegendMM LegendMM   100.52     LegendNANA
03:00 6.5 5.1 90 LegendMM LegendMM   100.50     LegendNANA
04:00 6.6 5.2 91 LegendMM LegendMM   100.53     LegendNANA
05:00 6.3 5.1 92 LegendMM LegendMM   100.61     LegendNANA
06:00 6.7 5.8 94 LegendMM LegendMM   100.62     LegendNANA
07:00 7.2 6.1 93 LegendMM LegendMM   100.64     LegendNANA
08:00 8.9 7.6 91 LegendMM LegendMM   100.68     LegendNANA
09:00 13.2 8.2 72 LegendMM LegendMM   100.71     LegendNANA
10:00 15.2 7.6 61 LegendMM LegendMM   100.74     LegendNANA
11:00 16.5 6.2 51 LegendMM LegendMM   100.69     LegendNANA
12:00 17.7 6.1 46 LegendMM LegendMM   100.71     LegendNANA
13:00 18.5 5.0 41 LegendMM LegendMM   100.68     LegendNANA
14:00 18.9 4.2 38 LegendMM LegendMM   100.65     LegendNANA
15:00 19.5 4.4 37 LegendMM LegendMM   100.61     LegendNANA
16:00 19.5 3.1 34 LegendMM LegendMM   100.57     LegendNANA
17:00 18.9 5.0 40 LegendMM LegendMM   100.56     LegendNANA
18:00 16.0 6.8 54 LegendMM LegendMM   100.61     LegendNANA
19:00 14.6 7.4 62 LegendMM LegendMM   100.61     LegendNANA
20:00 13.6 7.8 68 LegendMM LegendMM   100.64     LegendNANA
21:00 13.8 7.9 68 LegendMM LegendMM   100.65     LegendNANA
22:00 14.1 7.8 66 LegendMM LegendMM   100.67     LegendNANA
23:00 13.7 6.9 63 LegendMM LegendMM   100.67     LegendNANA

Notes on Data Quality.

Legend

  • E = Estimated
  • M = Missing
  • NA = Not Available
  • ‡ = Partner data that is not subject to review by the National Climate Archives
Date modified: